Change the Weather History Date:

Tuesday, October 29, 2013

  Actual Average Record
Temperature  
Mean Temperature 67 °F 68 °F  
Max Temperature 75 °F 86 °F 98 °F (1965)
Min Temperature 58 °F 50 °F 33 °F (1991)
Degree Days  
Heating Degree Days 0 1  
Month to date heating degree days 5 7  
Since 1 July heating degree days 5 7  
Cooling Degree Days 2 4  
Month to date cooling degree days 156 247  
Year to date cooling degree days 4052 3645  
Growing Degree Days 16 (Base 50)    
Moisture  
Dew Point 39 °F    
Average Humidity 36    
Maximum Humidity 49    
Minimum Humidity 23    
Precipitation  
Precipitation T in 0.00 in 0.06 in (1951)
Month to date precipitation T 0.21  
Year to date precipitation 1.83 2.60  
Since 1 July precipitation 1.39 0.78  
Snow  
Snow 0.00 in - - ()
Month to date snowfall 0.0  
Year to date snowfall 0.0  
Since 1 July snowfall 0.0  
Snow Depth 0.00 in    
Sea Level Pressure  
Sea Level Pressure 29.88 in    
Wind  
Wind Speed 6 mph (NNW)    
Max Wind Speed 13 mph    
Max Gust Speed 16 mph    
Visibility 10 miles    
Events      
T = Trace of Precipitation, MM = Missing Value Source: NWS Daily Summary

Daily Weather History Graph

Daily Weather History Graph

Search for Another Location

Airport or City:

Trip Planner

Search our weather history database for the weather conditions in past years. The results will help you decide how hot, cold, wet, or windy it might be!

Date:

Astronomy

Oct. 29, 2013 Rise Set
Actual Time 7:01 AM PDT 5:54 PM PDT
Civil Twilight 6:35 AM PDT 6:20 PM PDT
Nautical Twilight 6:06 AM PDT 6:49 PM PDT
Astronomical Twilight 5:37 AM PDT 7:18 PM PDT
Moon 2:09 AM PDT (10/29) 2:58 PM PDT (10/29)
Length of Visible Light 11h 44m
Length of Day
10h 53m
Waning Crescent, 24% of the Moon is Illuminated
Oct 29
Waning Crescent
Nov 3
New
Nov 9
First Quarter
Nov 17
Full
Nov 25
Last Quarter

Hourly Weather History & Observations

Time (PDT) Temp. Dew Point Humidity Pressure Visibility Wind Dir Wind Speed Gust Speed Precip Events Conditions
12:52 AM 61.0 °F 41.0 °F 48% 29.85 in 10.0 mi West 6.9 mph - N/A   Overcast
1:52 AM 62.1 °F 39.9 °F 44% 29.86 in 10.0 mi WNW 6.9 mph - N/A   Mostly Cloudy
2:52 AM 62.1 °F 39.9 °F 44% 29.86 in 10.0 mi NNW 5.8 mph - N/A   Overcast
3:52 AM 62.1 °F 39.9 °F 44% 29.86 in 10.0 mi NNW 5.8 mph - N/A   Overcast
4:52 AM 61.0 °F 39.0 °F 44% 29.86 in 10.0 mi NNW 12.7 mph - N/A   Scattered Clouds
5:52 AM 60.1 °F 39.9 °F 47% 29.87 in 10.0 mi North 6.9 mph - N/A   Mostly Cloudy
6:52 AM 62.1 °F 39.9 °F 44% 29.87 in 10.0 mi North 8.1 mph - N/A   Overcast
7:52 AM 61.0 °F 41.0 °F 48% 29.89 in 10.0 mi WNW 3.5 mph - N/A   Overcast
8:52 AM 63.0 °F 41.0 °F 45% 29.91 in 10.0 mi NNW 4.6 mph - 0.00 in   Mostly Cloudy
9:52 AM 66.0 °F 39.9 °F 38% 29.92 in 10.0 mi NNW 10.4 mph - N/A   Clear
10:52 AM 68.0 °F 37.0 °F 32% 29.91 in 10.0 mi WNW 3.5 mph - N/A   Clear
11:52 AM 70.0 °F 37.9 °F 31% 29.90 in 10.0 mi SSE 8.1 mph - N/A   Clear
12:52 PM 71.1 °F 37.0 °F 29% 29.88 in 10.0 mi ESE 4.6 mph - N/A   Clear
1:52 PM 72.0 °F 39.0 °F 30% 29.86 in 10.0 mi Variable 3.5 mph - N/A   Scattered Clouds
2:52 PM 73.0 °F 37.9 °F 28% 29.84 in 10.0 mi Calm Calm - N/A   Partly Cloudy
3:52 PM 73.0 °F 34.0 °F 24% 29.84 in 10.0 mi Variable 3.5 mph - N/A   Clear
4:52 PM 73.0 °F 35.1 °F 25% 29.84 in 10.0 mi NNW 4.6 mph - N/A   Clear
5:52 PM 68.0 °F 37.0 °F 32% 29.85 in 10.0 mi WNW 4.6 mph - N/A   Clear
6:52 PM 64.9 °F 37.9 °F 37% 29.87 in 10.0 mi NW 6.9 mph - N/A   Clear
7:52 PM 64.9 °F 39.0 °F 39% 29.88 in 10.0 mi NNW 10.4 mph - N/A   Clear
8:52 PM 63.0 °F 39.9 °F 43% 29.89 in 10.0 mi NNW 8.1 mph - N/A   Clear
9:52 PM 62.1 °F 41.0 °F 46% 29.91 in 10.0 mi North 9.2 mph - N/A   Clear
10:52 PM 62.1 °F 44.1 °F 52% 29.92 in 10.0 mi NNW 9.2 mph - N/A   Clear
11:52 PM 62.1 °F 44.1 °F 52% 29.92 in 10.0 mi NNW 11.5 mph - N/A   Clear